Skip Page Navigation
NASA JPL Caltech
NASA Logo - Jet Propulsion Laboratory + View the NASA Portal
+ Near-Earth Object (NEO) Program
Search JPL
JPL Home Earth Solar System Stars & Galaxies Technology
JPL Solar System Dynamics
BODIES ORBITS EPHEMERIDES TOOLS PHYSICAL DATA DISCOVERY FAQ SITE MAP
JPL Small-Body Database Browser
Search: [ help ]  
14092 Gaily (1997 MC8)
Classification: Main-belt Asteroid          SPK-ID: 2014092
Ephemeris | Orbit Diagram | Orbital Elements | Physical Parameters | Discovery Circumstances ]

[ hide orbit diagram ]
Orbit Diagram
Note: Make sure you have Java enabled on your browser to see the applet. This applet is provided as a 3D orbit visualization tool. The applet was implemented using 2-body methods, and hence should not be used for determining accurate long-term trajectories (over several years or decades) or planetary encounter circumstances. For accurate long-term ephemerides, please instead use our Horizons system.
Orbit Viewer

Additional Notes: the orbits shown in the applet are color coded. The planets are white lines, and the asteroid/comet is a blue line. The bright white line indicates the portion of the orbit that is above the ecliptic plane, and the darker portion is below the ecliptic plane. Likewise for the asteroid/comet orbit, the light blue indicates the portion above the ecliptic plane, and the dark blue the portion below the ecliptic plane.

Orbit Viewer applet originally written and kindly provided by Osamu Ajiki (AstroArts), and further modified by Ron Baalke (JPL).


Orbital Elements at Epoch 2456400.5 (2013-Apr-18.0) TDB
Reference: JPL 1 (heliocentric ecliptic J2000)
 Element Value Uncertainty (1-sigma)   Units 
e .0367050298945746 6.0042e-08  
a 2.703355647316923 3.3507e-08 AU
q 2.604128897466488 1.6859e-07 AU
i 1.316081674060055 6.5057e-06 deg
node 223.42378399 0.00030146 deg
peri 42.45921657666301 0.00032545 deg
M 236.2600670954889 0.00012964 deg
tp 2456958.533894837680
(2014-Oct-28.03389484)
0.00058914 JED
period 1623.5034028715
4.44
3.0184e-05
8.264e-08
d
yr
n .2217426827460084 4.1226e-09 deg/d
Q 2.802582397167358 3.4737e-08 AU
  Orbit Determination Parameters
   # obs. used (total)      581  
   data-arc span      7132 days (19.53 yr)  
   first obs. used      1993-09-23  
   last obs. used      2013-04-03  
   planetary ephem.      DE405  
   SB-pert. ephem.      SB405-CPV-2  
   condition code      0  
   fit RMS      .60938  
   data source      ORB  
   producer      Otto Matic  
   solution date      2013-Apr-29 13:54:46  

Additional Information
 Earth MOID = 1.5886 AU 
 T_jup = 3.365 
[ show covariance matrix ]

Ephemeris | Orbit Diagram | Orbital Elements | Physical Parameters | Discovery Circumstances ]

Physical Parameter Table
Parameter Symbol Value Units Sigma Reference Notes
absolute magnitude H 14.7 mag n/a PDS3 (MPC 39077)  

14092 Gaily           Discovered 1997 June 29 by Spacewatch at Kitt Peak.
T. Dean Gaily (b. 1934) was an acclaimed professor in the physics department at the University of Western Ontario from 1969 to 1998 and did research in laser spectroscopy.
NOTE: some special characters may not display properly (any characters within {} are an attempt to place the proper accent above a character)
Reference: 20030614/MPCPages.arcLast Updated: 2005-04-26

Alternate Designations
 1997 MC8 = 1998 XD19 
Ephemeris | Orbit Diagram | Orbital Elements | Physical Parameters | Discovery Circumstances ]
ABOUT SSD CREDITS/AWARDS PRIVACY/COPYRIGHT GLOSSARY LINKS
FirstGov 2013-May-19 18:59 UT
(server date/time)  
NASA Home Page
Site Manager:   Donald K. Yeomans
Webmaster  Alan B. Chamberlin